Location: Santa Giusta
(39.8800°N, 8.6069°E)
Time: 17:12:08
(UTC+00:00)

Cosmos 1655 Rocket - Pass Details

Date: 02 February 2023
Orbit: 970 x 1006 km, 83.0° (Epoch: 31 March)

Event Time Altitude Azimuth Distance (km) Brightness Sun altitude
Rises 16:58:20 0° 356° (N) 3,693 6.9 -3.1°
Reaches altitude 10° 17:00:55 10° 0° (N) 2,737 6.2 -3.6°
Maximum altitude 17:07:07 61° 80° (E) 1,101 4.1 -4.7°
Drops below altitude 10° 17:13:13 10° 160° (SSE) 2,705 6.3 -5.8°
Sets 17:15:45 0° 164° (SSE) 3,648 7.0 -6.3°
